This demonstration page uses our WeatherBlox Daily Observations layout. Learn more.

Left ArrowRight Arrow

34.02893, -84.19858

Hourly Observations for August 22, 2022

Temp ( °F °C ) Dew Point ( °F °C ) Humidity (%) Winds ( mph kmh ) Pressure ( in mb ) Visibility ( mi km ) Precip ( " mm )
12:53 am 00:53 Clear 73 22.8 72 22.2 96 96 S 3 6 30.00 1016 9 14 0.00 0.00
1:53 am 01:53 Partly Cloudy 74 23.3 72 22.2 94 94 W 3 6 29.99 1016 10 16 0.00 0.00
2:20 am 02:20 Mostly Cloudy 74 23.3 73 22.8 97 97 SW 3 6 30.00 1016 10 16 0.00 0.00
2:28 am 02:28 Mostly Cloudy 73 22.8 72 22.2 96 96 SSW 3 6 29.99 1016 9 14 0.00 0.00
2:53 am 02:53 Partly Cloudy 73 22.8 71 21.7 94 94 SW 6 9 29.97 1015 10 16 0.00 0.00
3:05 am 03:05 Mostly Cloudy 73 22.8 72 22.2 96 96 SW 5 7 29.99 1016 10 16 0.00 0.00
3:21 am 03:21 Mostly Cloudy 73 22.8 71 21.7 94 94 SW 3 6 29.98 1015 10 16 0.00 0.00
3:53 am 03:53 Partly Cloudy 73 22.8 71 21.7 94 94 SW 3 6 29.96 1015 10 16 0.00 0.00
4:01 am 04:01 Mostly Cloudy 73 22.8 72 22.2 96 96 SW 3 6 29.97 1015 10 16 0.00 0.00
4:17 am 04:17 Partly Cloudy 73 22.8 71 21.7 94 94 WSW 5 7 29.97 1015 10 16 0.00 0.00
4:37 am 04:37 Mostly Cloudy 73 22.8 72 22.2 96 96 WSW 5 7 29.97 1015 10 16 0.00 0.00
4:53 am 04:53 Cloudy 73 22.8 72 22.2 96 96 WSW 6 9 29.95 1014 10 16 0.00 0.00
5:20 am 05:20 Cloudy 73 22.8 72 22.2 96 96 W 3 6 29.96 1015 10 16 0.00 0.00
5:29 am 05:29 Cloudy 73 22.8 72 22.2 96 96 WSW 3 6 29.96 1015 9 14 0.00 0.00
5:53 am 05:53 Cloudy 73 22.8 72 22.2 96 96 W 5 7 29.96 1014 9 14 0.00 0.00
6:53 am 06:53 Cloudy 73 22.8 72 22.2 96 96 Calm 29.96 1015 8 13 0.00 0.00
7:55 am 07:55 Partly Cloudy 73 22.8 71 21.7 94 94 W 5 7 29.99 1016 9 14 0.00 0.00
8:53 am 08:53 Mostly Cloudy 74 23.3 72 22.2 94 94 W 5 7 30.00 1016 8 13 0.00 0.00
9:25 am 09:25 Cloudy 74 23.3 72 22.2 94 94 WNW 5 7 30.01 1016 9 14 0.00 0.00
9:53 am 09:53 Cloudy 75 23.9 71 21.7 88 88 VRB 3 6 30.01 1016 9 14 0.00 0.00
10:28 am 10:28 Cloudy 77 25 72 22.2 84 84 Calm 30.01 1016 10 16 0.00 0.00
10:53 am 10:53 Cloudy 78 25.6 71 21.7 79 79 NNW 6 9 30.00 1016 10 16 0.00 0.00
11:53 am 11:53 Mostly Cloudy 80 26.7 71 21.7 74 74 VRB 6 9 29.99 1016 10 16 0.00 0.00
12:53 pm 12:53 Mostly Cloudy 80 26.7 70 21.1 71 71 Calm 29.98 1015 10 16 0.00 0.00
1:51 pm 13:51 Sunny 81 27 70 21 70 70 WNW 6 9 29.97 1015 10 16 0.00 0.00
1:53 pm 13:53 Sunny 80 26.7 70 21.1 71 71 W 7 11 29.97 1015 10 16 0.00 0.00
2:27 pm 14:27 Sunny with Nearby Thunderstorms 80 26.7 70 21.1 71 71 NW 7 11 29.96 1015 10 16 0.00 0.00
2:34 pm 14:34 Sunny with Thunderstorms 80 26.7 70 21.1 71 71 NW 7 11 29.96 1015 10 16 0.00 0.00
2:46 pm 14:46 Sunny 80 26.7 69 20.6 69 69 NW 6 9 29.96 1015 10 16 0.00 0.00
2:53 pm 14:53 Sunny 80 26.7 70 21.1 71 71 WSW 7 11 29.95 1014 10 16 0.00 0.00
3:53 pm 15:53 Sunny 80 26.7 70 21.1 71 71 W 7 11 29.93 1014 10 16 0.00 0.00
4:53 pm 16:53 Mostly Cloudy 81 27.2 72 22.2 74 74 VRB 6 9 29.92 1013 10 16 0.00 0.00
5:53 pm 17:53 Mostly Sunny 82 27.8 69 20.6 65 65 W 6 9 29.91 1013 10 16 0.00 0.00
6:53 pm 18:53 Partly Cloudy 80 26.7 70 21.1 71 71 NNW 7 11 29.91 1013 10 16 0.00 0.00
7:53 pm 19:53 Mostly Sunny 78 25.6 70 21.1 76 76 W 6 9 29.93 1013 10 16 0.00 0.00
8:53 pm 20:53 Clear 76 24.4 69 20.6 79 79 W 5 7 29.95 1014 10 16 0.00 0.00
9:53 pm 21:53 Clear 75 23.9 69 20.6 82 82 WSW 5 7 29.96 1014 10 16 0.00 0.00
10:53 pm 22:53 Clear 75 23.9 70 21.1 84 84 W 5 7 29.96 1014 10 16 0.00 0.00
11:53 pm 23:53 Clear 74 23.3 70 21.1 87 87 W 6 9 29.96 1015 10 16 0.00 0.00

Powered by AerisWeather